www.pogodaiklimat.ru

Погода и климат >> Архив погоды >> Коморские Острова >> Dzaoudzi


ПОГОДА в Dzaoudzi

  • Прогноз погоды в Dzaoudzi
  • Монитор погоды в Dzaoudzi
  • Климат города

АРХИВ ПОГОДЫ в Dzaoudzi

Время (UTC), дата Ветер
(напр.,м/с)
 
Видим.   Явления Облачность Т
(С)
Тd
(С)
f
(%)
Тe
(С)
Тes
(С)
Комфортность P
(гПа)
Po
(гПа)
Тmin
(С)
Tmax
(С)
R
(мм)
R24
(мм)
S
(см)
12 11.12 З 3
{6}
20 км 8/6 660 м
[Cu Sc Ac trans Ci sp]
+28.4 +23.3 74 +38 +41 очень
душно
1011.8 1012.0 0.4
15 11.12 З 2
{5}
20 км 8/4 800 м
[Cu Sc Ac trans Ci sp]
+28.4 +23.8 76 +39 +39 очень
душно
1012.7 1013.0
18 11.12 З 1
{3}
18 км н/о +27.0 +24.3 85 +38 +38 очень
душно
1014.3 1014.0 +31.3 0.4
21 11.12 З 1
{3}
19 км н/о +26.3 +24.0 87 +36 +36 очень
душно
1013.8 1014.0
00 12.12 В 5
{7}
15 км 10/10 300 м
[]
+26.5 +24.2 87 +37 +37 очень
душно
1012.8 1013.0
03 12.12 ЮВ 2
{9}
20 км в посл. час ливневой дождь 8/5 600 м
[Cu Sc Ac trans Ci sp]
+25.4 +23.3 88 +34 +34 очень
душно
1013.6 1014.0 2
06 12.12 З 1 20 км {ливн. осадки} 9/3 660 м
[Cu Sc Ac As Ci sp]
+27.7 +23.7 79 +38 +43 очень
душно
1014.3 1014.0 +24.8 2
09 12.12 В 3
{5}
20 км 5/4 660 м
[Cu Sc Ac trans Ci sp]
+30.2 +24.6 72 +43 +53 опасность
перегрева
1013.3 1013.0
12 12.12 Ю 5
{8}
20 км 6/4 660 м
[Cu Sc Ac trans Ci sp]
+30.1 +24.3 71 +42 +45 опасность
перегрева
1011.6 1012.0
15 12.12 Ю 3
{6}
20 км 3/3 660 м
[Cu Sc Ac trans]
+28.9 +24.0 75 +40 +40 очень
душно
1012.3 1012.0
18 12.12 З 3
{4}
20 км н/о +27.7 +23.9 80 +38 +38 очень
душно
1013.5 1014.0 +31.5
21 12.12 З 4
{5}
20 км 9/0
[]
+28.0 +23.8 78 +39 +39 очень
душно
1013.2 1013.0
00 13.12 ЮЗ 2
{5}
20 км н/о +27.2 +23.9 82 +37 +37 очень
душно
1012.3 1012.0
03 13.12 С 1
{2}
20 км 9/3 660 м
[Cu Sc Ac trans]
+26.5 +24.2 87 +37 +37 очень
душно
1013.7 1014.0
06 13.12 Ю 3 20 км 8/3 660 м
[Cu Sc Ac As Ci sp]
+29.4 +24.5 75 +42 +46 опасность
перегрева
1014.8 1015.0 +26.3
09 13.12 СВ 5
{6}
20 км 9/6 660 м
[Cu Sc As op]
+29.3 +25.1 78 +42 +44 опасность
перегрева
1012.3 1012.0
12 13.12 З 2
{5}
9000 м осадки на расстоянии 9/6 660 м
[Cu Sc Ac trans]
+30.4 +24.1 69 +42 +45 опасность
перегрева
1011.0 1011.0
15 13.12 В 2
{2}
20 км {ливн. осадки} 8/3 600 м
[Cu Sc Ac As]
+27.7 +24.1 81 +39 +39 очень
душно
1011.5 1012.0 1
18 13.12 С 1
{3}
20 км 9/0 2000 м
[]
+26.8 +23.7 83 +37 +37 очень
душно
1013.0 1013.0 +30.9 1
21 13.12 З 2
{4}
17 км н/о +26.1 +24.3 90 +36 +36 очень
душно
1012.4 1012.0
00 14.12 СВ 2
{4}
20 км н/о +25.7 +23.7 89 +35 +35 очень
душно
1011.9 1012.0
03 14.12 СЗ 2
{3}
20 км 3/3 660 м
[Cu Sc Ci fib]
+25.1 +23.9 93 +34 +34 очень
душно
1013.1 1013.0
06 14.12 В 2
{4}
20 км 3/3 660 м
[Cu Sc]
+30.6 +24.5 70 +43 +51 опасность
перегрева
1013.4 1013.0 +24.8 1
09 14.12 В 2
{4}
20 км 4/3 660 м
[Cu med, cong Ci fib]
+30.9 +24.1 67 +43 +57 опасность
перегрева
1012.3 1012.0
12 14.12 ЮЗ 2
{4}
20 км 5/3 660 м
[Cu med, cong Ac trans Ci fib]
+31.7 +23.3 61 +42 +49 опасность
перегрева
1009.2 1009.0
15 14.12 В 2
{4}
20 км 8/4 700 м
[Cu Sc Ac trans Ci sp]
+29.5 +23.9 72 +41 +41 опасность
перегрева
1010.4 1010.0
18 14.12 Ю 1
{3}
20 км н/о +28.3 +23.9 77 +39 +39 очень
душно
1010.9 1011.0 +32.6
21 14.12 СЗ 1
{2}
20 км 8/8 600 м
[]
+27.3 +24.7 86 +39 +39 очень
душно
1011.3 1011.0
00 15.12 З 2
{4}
20 км 8/8 600 м
[]
+27.5 +24.7 85 +39 +39 очень
душно
1010.5 1011.0
03 15.12 С 2
{3}
20 км 4/1 600 м
[Cu Sc Ac trans Ci sp]
+26.7 +24.2 86 +37 +37 очень
душно
1011.2 1011.0
06 15.12 Ю 2 20 км 6/3 600 м
[Cu Sc Ac trans Ci sp]
+31.5 +24.6 67 +44 +51 опасность
перегрева
1012.8 1013.0 +26.3
09 15.12 З 3
{7}
20 км 8/4 750 м
[Cu Sc Ac trans Ci sp]
+30.9 +24.1 67 +43 +50 опасность
перегрева
1011.3 1011.0
12 15.12 З 5
{8}
5000 м осадки на расстоянии {ливн. осадки} 9/6 480 м
[Cb cap Ac trans]
+29.2 +24.5 76 +41 +43 опасность
перегрева
1010.0 1010.0
15 15.12 ЮЗ 4
{6}
20 км {ливн. осадки} 10/8 660 м
[Cu Sc Ac As]
+28.3 +25.1 83 +41 +41 опасность
перегрева
1010.0 1010.0 8
18 15.12 ЮЗ 2
{5}
20 км 10/10 600 м
[]
+28.5 +24.9 81 +41 +41 опасность
перегрева
1012.3 1012.0 +31.8 8
21 15.12 Ю 10
{12}
12 км дождь 9/9 600 м
[]
+26.7 +24.4 87 +37 +37 очень
душно
1011.1 1011.0 0.0
00 16.12 ЮВ 10
{16}
7000 м дождь 10/0 2000 м
[]
+26.7 +24.2 86 +37 +37 очень
душно
1009.6 1010.0 12
03 16.12 СЗ 3
{5}
20 км слабый дождь 10/10 540 м
[Cu Sc Ac As]
+25.3 +23.9 92 +35 +35 очень
душно
1010.0 1010.0 4
06 16.12 С 2 20 км 10/4 660 м
[Cu Sc Ac As]
+28.4 +24.6 80 +40 +43 очень
душно
1012.2 1012.0 +25.0 24
09 16.12 СЗ 4
{7}
20 км 8/4 660 м
[Cu Sc Ac trans Cs]
+30.3 +23.7 68 +41 +47 опасность
перегрева
1010.7 1011.0
12 16.12 ЮВ 4
{6}
20 км 10/4 660 м
[Cu Sc As op]
+29.3 +24.4 75 +41 +42 опасность
перегрева
1009.8 1010.0
15 16.12 Ю 3
{6}
20 км 9/5 600 м
[Cu Sc As op]
+27.7 +24.1 81 +39 +39 очень
душно
1010.1 1010.0
18 16.12 С 3
{5}
19 км 9/9 600 м
[]
+25.5 +24.1 92 +35 +35 очень
душно
1012.5 1013.0 +31.2 7
21 16.12 В 9
{17}
6000 м дождь 10/10 100 м
[]
+24.7 +23.5 93 +33 +33 очень
душно
1012.7 1013.0 53
00 17.12 ЮВ 9
{17}
7000 м дождь 10/10 300 м
[]
+24.8 +23.4 92 +33 +33 очень
душно
1011.1 1011.0 68
03 17.12 В 6
{10}
20 км в посл. час дождь 10/8 600 м
[Cu Sc As op]
+25.9 +23.6 87 +35 +35 очень
душно
1011.6 1012.0 3
06 17.12 СВ 6
{11}
20 км н/о +27.5 +24.1 82 +38 +38 очень
душно
1012.9 1013.0 +23.6 78
09 17.12 СВ 6
{13}
20 км 10/5 480 м
[Cu Sc As op]
+28.7 +24.5 78 +41 +41 опасность
перегрева
1012.0 1012.0
12 17.12 СВ 5
{8}
20 км 10/4 540 м
[Cu Sc As op]
+27.6 +21.9 71 +36 +36 очень
душно
1010.0 1010.0
15 17.12 С 2
{7}
20 км 8/4 600 м
[Cu Sc Ac trans Ci sp]
+27.3 +23.1 78 +37 +37 очень
душно
1010.5 1011.0
18 17.12 СВ 4
{8}
20 км 10/10 600 м
[]
+27.3 +23.5 80 +37 +37 очень
душно
1012.5 1013.0 +29.3
21 17.12 СВ 6
{11}
20 км 8/8 600 м
[]
+27.7 +23.9 80 +38 +38 очень
душно
1012.7 1013.0
00 18.12 С 4
{8}
20 км н/о +26.9 +23.4 81 +36 +36 очень
душно
1011.2 1011.0 0.6
03 18.12 СВ 2
{11}
3000 м дождь 10/5 450 м
[Cu Sc As op]
+25.0 +23.6 92 +34 +34 очень
душно
1013.1 1013.0 13
06 18.12 СЗ 3 20 км в посл. час ливневой дождь {гроза} 10/6 400 м
[Cb cap As op]
+23.9 +22.9 94 +32 +32 очень
душно
1015.0 1015.0 +25.0 38

 

Местоположение метеостанции Dzaoudzi (Коморские Острова): широта -12.80 долгота 45.28 высота над уровнем моря 7 м.

В архиве по умолчанию представлена погода в Dzaoudzi за последнюю неделю. Архивные данные за месяц целиком и за предыдущие месяцы, начиная с января 2011 года, Вы можете получить, выбрав интересующий диапазон дат из раскрывающегося списка и нажав кнопку "Ввод!".

Внимание! Время в таблицах - всемирное. Для получения местного времени необходимо прибавить поправку, которая в Dzaoudzi равна 3 ч.

Смотрите также архив погоды в соседних городах и на ближайших метеорологических станциях:

Погода в Glorieuses Island (Реюньон) (254 км)
Погода в Moroni (Коморские Острова) (260 км)
Погода в Fascene (Мадагаскар) (334 км)
Погода в Mahajanga (Мадагаскар) (338 км)
Погода в Antsohihy (Мадагаскар) (372 км)
Погода в Antsiranana (Мадагаскар) (439 км)
Погода в Besalampy (Мадагаскар) (448 км)
Погода в Pemba (Мадагаскар) (515 км)
Погода в Juan De Nova Island (Реюньон) (543 км)
Погода в Sambava (Мадагаскар) (554 км)

Пояснения к столбцам:

Ветер - указаны скорость ветра в м/с - средняя за 10 мин, порывы в срок и между сроками (в фигурных скобках) и направление, откуда дует ветер: С - северный, СВ - северо-восточный, В - восточный, ЮВ - юго-восточный, Ю - южный, ЮЗ - юго-западный, З - западный, СЗ - северо-западный.
Видимость - горизонтальная дальность видимости в метрах или километрах. При видимости от 1 до 10 км при отсутствии осадков обычно наблюдается дымка, при ухудшении видимости до 1 км и менее - туман. В сухую погоду видимость может ухудшаться дымом, пылью или мглою.
Явления - указаны атмосферные явления, наблюдавшиеся в срок или в последний час перед сроком; фигурными скобками обозначены явления, наблюдавшиеся между сроками (за 1-3 часа до срока); квадратными скобками обозначены град или гололедные отложения с указанием их диаметра в мм.
Облачность - указаны через наклонную черту общая и нижняя облачность в баллах и высота нижней границы облаков в метрах; квадратными скобками обозначены формы облаков: Ci - перистые, Cs - перисто-слоистые, Cc - перисто-кучевые, Ac - высококучевые, As - высокослоистые, Sc - слоисто-кучевые, Ns - слоисто-дождевые, Cu - кучевые, Cb - кучево-дождевые. Подробнее классификацию облаков см. в Атласе облаков (PDF).
T - Температура воздуха - температура, измеренная на высоте 2 м над землей.
Td - Температура точки росы - температура, при понижении до которой содержащийся в воздухе водяной пар достигнет насыщения.
f - Относительная влажность воздуха - влажноcть воздуха, измеренная на высоте 2 м над землей.
Te - Эффективная температура - температура, которую ощущает одетый по сезону человек в тени. Характеристика душности погоды. При расчете учитывается влияние влажности воздуха и скорости ветра на теплоощущения человека.
Tes - Эффективная температура на солнце - температура, которую ощущает человек, с поправкой на солнечный нагрев. Характеристика знойности погоды. Зависит от высоты солнца над горизонтом, облачности и скорости ветра. Ночью, в пасмурную погоду, а также при ветре 12 м/с и более поправка равна нулю.
P - Атмосферное давление - приведенное к уровню моря атмосферное давление.
Po - Атмосферное давление - измеренное на уровне метеостанции атмосферное давление.
Tmin - Минимальная температура - минимум температуры воздуха на высоте 2 м над землей.
Tmax - Максимальная температура - максимум температуры воздуха на высоте 2 м над землей.
R - Количество осадков - Количество выпавших осадков за период времени, мм. При наведении курсора мыши на число - период времени, за который выпало указанное количество осадков.
R24 - Количество осадков - Количество выпавших осадков за 24 часа, мм.
S - Снежный покров - Высота снежного покрова, см. При наведении курсора мыши на число - состояние снежного покрова и степень покрытия местности в баллах.